This demonstration page uses our WeatherBlox Daily Observations layout. Learn more.

Left ArrowRight Arrow

39.95238, -75.16362

Hourly Observations for November 28, 2022

Temp ( °F °C ) Dew Point ( °F °C ) Humidity (%) Winds ( mph kmh ) Pressure ( in mb ) Visibility ( mi km ) Precip ( " mm )
12:54 am 00:54 Mostly Cloudy 55 12.8 48 8.9 77 77 SW 12 19 29.52 1000 10 16 0.00 0.00
1:54 am 01:54 Mostly Cloudy 52 11.1 47 8.3 83 83 WSW 9 15 29.53 1000 10 16 0.00 0.00
2:54 am 02:54 Mostly Cloudy 52 11.1 47 8.3 83 83 WSW 7 11 29.54 1001 10 16 0.00 0.00
3:54 am 03:54 Mostly Cloudy 54 12.2 46 7.8 74 74 SW 10 17 29.55 1001 10 16 0.00 0.00
4:54 am 04:54 Partly Cloudy 50 10 45 7.2 83 83 WSW 9 15 29.56 1001 10 16 0.00 0.00
5:54 am 05:54 Mostly Clear 53 11.7 44 6.7 71 71 W 13 20 29.57 1001 10 16 0.00 0.00
6:54 am 06:54 Mostly Cloudy 54 12.2 45 7.2 71 71 W 10 17 29.60 1002 10 16 0.00 0.00
7:54 am 07:54 Partly Cloudy 56 13.3 45 7.2 66 66 WNW 13 20 29.63 1003 10 16 0.00 0.00
8:54 am 08:54 Cloudy 52 11.1 43 6.1 71 71 NNW 21 33 29.69 1006 10 16 0.01 0.13
9:54 am 09:54 Mostly Cloudy 51 10.6 37 2.8 58 58 NW 20 31 29.75 1007 10 16 0.00 0.00
10:54 am 10:54 Mostly Cloudy 52 11.1 36 2.2 54 54 NW 21 33 29.77 1008 10 16 0.00 0.00
11:54 am 11:54 Mostly Cloudy 52 11.1 35 1.7 52 52 NW 20 31 29.78 1008 10 16 0.00 0.00
12:54 pm 12:54 Mostly Cloudy 53 11.7 34 1.1 48 48 NW 18 30 29.79 1009 10 16 0.00 0.00
1:54 pm 13:54 Mostly Cloudy 53 11.7 35 1.7 50 50 NNW 18 30 29.81 1010 10 16 0.00 0.00
2:54 pm 14:54 Mostly Cloudy 53 11.7 35 1.7 50 50 NW 17 28 29.84 1011 10 16 0.00 0.00
3:54 pm 15:54 Mostly Cloudy 51 10.6 33 0.6 50 50 NW 17 28 29.88 1012 10 16 0.00 0.00
4:54 pm 16:54 Mostly Cloudy 51 10.6 34 1.1 52 52 NW 12 19 29.92 1013 10 16 0.00 0.00
5:54 pm 17:54 Mostly Cloudy 50 10 34 1.1 54 54 NW 12 19 29.95 1014 10 16 0.00 0.00
6:54 pm 18:54 Partly Cloudy 47 8.3 34 1.1 60 60 NNW 7 11 29.98 1015 10 16 0.00 0.00
7:54 pm 19:54 Partly Cloudy 46 7.8 34 1.1 63 63 N 7 11 30.02 1017 10 16 0.00 0.00
8:54 pm 20:54 Partly Cloudy 44 6.7 34 1.1 67 67 N 6 9 30.04 1017 10 16 0.00 0.00
9:54 pm 21:54 Mostly Cloudy 44 6.7 34 1.1 67 67 N 7 11 30.07 1018 10 16 0.00 0.00
10:54 pm 22:54 Partly Cloudy 44 6.7 34 1.1 67 67 N 5 7 30.09 1019 10 16 0.00 0.00
11:54 pm 23:54 Mostly Clear 43 6.1 33 0.6 68 68 N 3 6 30.11 1020 10 16 0.00 0.00

Powered by AerisWeather